TimeEDT,TemperatureF,Dew PointF,Humidity,Sea Level PressureIn,VisibilityMPH,Wind Direction,Wind SpeedMPH,Gust SpeedMPH,PrecipitationIn,Events,Conditions,WindDirDegrees,DateUTC
12:15 AM,41.0,24.8,53,29.99,10.0,NNE,4.6,-,N/A,,Clear,30,2013-03-24 04:15:00
12:35 AM,39.2,24.8,56,29.99,10.0,NNE,4.6,-,N/A,,Clear,20,2013-03-24 04:35:00
12:55 AM,37.4,24.8,60,30.00,10.0,WSW,3.5,-,N/A,,Clear,250,2013-03-24 04:55:00
1:15 AM,37.4,24.8,60,29.98,10.0,NNE,3.5,-,N/A,,Clear,20,2013-03-24 05:15:00
1:35 AM,37.4,24.8,60,29.99,10.0,North,3.5,-,N/A,,Clear,360,2013-03-24 05:35:00
1:55 AM,35.6,24.8,65,30.00,10.0,Calm,Calm,-,N/A,,Clear,0,2013-03-24 05:55:00
2:15 AM,30.2,26.6,86,30.00,10.0,Calm,Calm,-,N/A,,Clear,0,2013-03-24 06:15:00
2:35 AM,30.2,26.6,86,29.99,10.0,North,3.5,-,N/A,,Clear,350,2013-03-24 06:35:00
2:55 AM,32.0,26.6,80,29.99,10.0,Calm,Calm,-,N/A,,Clear,0,2013-03-24 06:55:00
3:15 AM,30.2,26.6,86,29.99,10.0,Calm,Calm,-,N/A,,Clear,0,2013-03-24 07:15:00
3:35 AM,28.4,28.4,100,30.01,10.0,Calm,Calm,-,N/A,,Clear,0,2013-03-24 07:35:00
3:55 AM,28.4,26.6,93,30.02,10.0,Calm,Calm,-,N/A,,Clear,0,2013-03-24 07:55:00
4:15 AM,28.4,26.6,93,30.01,10.0,Calm,Calm,-,N/A,,Clear,0,2013-03-24 08:15:00
4:35 AM,26.6,24.8,93,30.00,10.0,Calm,Calm,-,N/A,,Clear,0,2013-03-24 08:35:00
4:55 AM,26.6,24.8,93,30.01,10.0,Calm,Calm,-,N/A,,Clear,0,2013-03-24 08:55:00
5:15 AM,28.4,26.6,93,30.00,10.0,Calm,Calm,-,N/A,,Clear,0,2013-03-24 09:15:00
5:35 AM,28.4,26.6,93,29.99,10.0,Calm,Calm,-,N/A,,Clear,0,2013-03-24 09:35:00
5:55 AM,28.4,26.6,93,29.98,10.0,Calm,Calm,-,N/A,,Clear,0,2013-03-24 09:55:00
6:15 AM,28.4,26.6,93,29.99,10.0,Calm,Calm,-,N/A,,Clear,0,2013-03-24 10:15:00
7:45 AM,28.4,26.6,93,29.99,10.0,Calm,Calm,-,N/A,,Clear,0,2013-03-24 11:45:00
8:55 AM,35.6,32.0,87,29.96,10.0,NNE,4.6,-,N/A,,Clear,20,2013-03-24 12:55:00
10:55 AM,39.2,21.2,49,29.92,10.0,ENE,4.6,-,N/A,,Clear,60,2013-03-24 14:55:00
12:45 PM,41.0,21.2,45,29.85,10.0,ENE,3.5,-,N/A,,Mostly Cloudy,70,2013-03-24 16:45:00
1:45 PM,42.8,19.4,39,29.81,10.0,Calm,Calm,-,N/A,,Clear,0,2013-03-24 17:45:00
4:50 PM,42.8,21.2,42,29.72,10.0,Calm,Calm,-,N/A,,Overcast,0,2013-03-24 20:50:00
6:35 PM,35.6,33.8,93,29.74,10.0,SSW,8.1,-,N/A,,Overcast,210,2013-03-24 22:35:00
6:55 PM,33.8,32.0,93,29.74,2.5,SW,5.8,-,N/A,,Overcast,220,2013-03-24 22:55:00
7:15 PM,33.8,32.0,93,29.73,2.0,Calm,Calm,-,N/A,,Overcast,0,2013-03-24 23:15:00
7:35 PM,33.8,32.0,93,29.73,1.2,South,3.5,-,N/A,,Overcast,190,2013-03-24 23:35:00
7:55 PM,33.8,32.0,93,29.73,1.5,Calm,Calm,-,N/A,,Overcast,0,2013-03-24 23:55:00
8:15 PM,33.8,32.0,93,29.73,1.8,Calm,Calm,-,N/A,,Overcast,0,2013-03-25 00:15:00
8:35 PM,33.8,32.0,93,29.71,1.8,Calm,Calm,-,N/A,,Overcast,0,2013-03-25 00:35:00
8:55 PM,33.8,32.0,93,29.70,1.5,Calm,Calm,-,N/A,,Overcast,0,2013-03-25 00:55:00
9:15 PM,33.8,32.0,93,29.70,2.5,Calm,Calm,-,N/A,,Overcast,0,2013-03-25 01:15:00
9:35 PM,33.8,32.0,93,29.70,4.0,NNE,4.6,-,N/A,,Overcast,20,2013-03-25 01:35:00
9:55 PM,33.8,32.0,93,29.70,7.0,NNE,4.6,-,N/A,,Overcast,30,2013-03-25 01:55:00
10:15 PM,33.8,33.8,100,29.70,9.0,Calm,Calm,-,N/A,,Overcast,0,2013-03-25 02:15:00
10:35 PM,33.8,33.8,100,29.71,8.0,Calm,Calm,-,N/A,,Overcast,0,2013-03-25 02:35:00
10:55 PM,33.8,33.8,100,29.69,2.5,NE,4.6,-,N/A,,Overcast,40,2013-03-25 02:55:00
11:15 PM,33.8,33.8,100,29.67,2.5,Calm,Calm,-,N/A,,Overcast,0,2013-03-25 03:15:00
11:35 PM,33.8,33.8,100,29.67,3.0,Calm,Calm,-,N/A,,Overcast,0,2013-03-25 03:35:00
11:55 PM,33.8,33.8,100,29.66,3.0,NE,4.6,-,N/A,,Overcast,40,2013-03-25 03:55:00